{"data":{"norad_id":63828,"epoch":"2026-05-25T04:26:30.740064Z","epoch_age_seconds":56236,"freshness":"FRESH","line1":"1 63828U 25092AA  26145.18507801  .00017096  00000+0  62862-3 0  9992","line2":"2 63828  43.0002 100.5302 0001303 261.2142  98.8562 15.27617865 60365","mean_motion":15.27617865,"eccentricity":0.0001303,"inclination_deg":43.0002,"raan_deg":100.5302,"arg_perigee_deg":261.2142,"mean_anomaly_deg":98.8562,"bstar":0.00062862,"rev_number":6036,"period_min":94.264412127702,"perigee_km":482.04171917476,"apogee_km":483.8297147248,"semimajor_km":6861.0727169498,"source":"CELESTRAK","updated_at":"2026-05-25T13:38:20.144644Z"}}